Regional Weather Roundup
Issued by NWS Grand Forks, ND

Home | Current Version | Previous Version | Graphics & Text | Print | Product List | Glossary On
Versions: 1 2 3 4 5 6 7 8 9 10 11 12 13 14 15 16 17 18 19 20 21 22 23 24 25 26 27 28 29 30 31 32 33 34 35 36 37 38 39 40 41 42 43 44 45 46 47 48 49 50
000
ASUS43 KFGF 021810
RWRFGF
PRAIRIE TO PINES  WEATHER ROUNDUP
NATIONAL WEATHER SERVICE EASTERN NORTH DAKOTA/GRAND FORKS ND
100 PM CDT MON MAY 02 2016

 **SATELLITE DATA USED TO AUGMENT SKY COVER AT AUTOMATED STATIONS**
 *****  WEATHER ACROSS EASTERN NORTH DAKOTA  *****

CITY           SKY/WX    TMP DP  RH WIND       PRES   REMARKS
GRAND FORKS    MOSUNNY   68  30  24 SE3       30.00F
6HR MIN TEMP:  43; 6HR MAX TEMP:  69;

GRAND FRKS AFB SUNNY     68  28  22 E6        30.00F
DEVILS LAKE    SUNNY     62  37  39 S10       30.02S
6HR MIN TEMP:  50; 6HR MAX TEMP:  62; 6HR PCP: TRACE;

FARGO          SUNNY     68  26  20 CALM      30.01F
WAHPETON ARPT  PTCLDY    64  27  24 CALM      30.02F
$$

 ***** WEATHER ACROSS CENTRAL AND WESTERN NORTH DAKOTA  *****

CITY           SKY/WX    TMP DP  RH WIND       PRES   REMARKS
BISMARCK       PTSUNNY   57  47  69 SE13      30.01S
6HR MIN TEMP:  43; 6HR MAX TEMP:  57; 6HR PCP:  0.05;

MINOT          SUNNY     70  35  27 N10G21    29.99S
6HR MIN TEMP:  49; 6HR MAX TEMP:  70;

JAMESTOWN      CLOUDY    55  43  63 S13       30.02S
6HR MIN TEMP:  46; 6HR MAX TEMP:  57; 6HR PCP:  0.03;

MINOT AFB      SUNNY     66  40  38 E9G20     29.99R
GARRISON         N/A     66  39  37 E8G18     29.97S
WILLISTON      SUNNY     71  32  23 N13       30.03R
6HR MIN TEMP:  49; 6HR MAX TEMP:  72;

DICKINSON      CLOUDY    65  33  30 NW21G30   29.98F
6HR MIN TEMP:  44; 6HR MAX TEMP:  67;

HETTINGER      LGT RAIN  67  36  31 NW22G35   30.02F
6HR MIN TEMP:  41; 6HR MAX TEMP:  67; 6HR PCP: TRACE;

$$

 *****  OTHER AIRPORT OBSERVATIONS IN OUR AREA  *****

CITY           SKY/WX    TMP DP  RH WIND       PRES   REMARKS
WALHALLA       FAIR      64  32  29 SW3       30.01F
GRAFTON AIRPOR FAIR      66  30  26 SE7       30.02F
VALLEY CITY AR MOCLDY    59  37  44 CALM      30.04F
CANDO          FAIR      64  34  32 SE10G21   30.04S
CAVALIER APRT  FAIR      64  32  29 NW5       30.01F
GWINNER        FAIR      63  37  39 NW13      30.03R
SHEYENNE NWR     N/A     65  30  27 SW7       29.95S
ROLLA          FAIR      63  32  31 S6        30.03S
 ***** THE ABOVE OBSERVATIONS ARE NON NWS ARE NOT QUALITY
       CONTROLLED AND MAY MIS-REPORT RAIN FOR SNOW...
$$

  *****  WEATHER ACROSS NORTHERN MINNESOTA  *****

CITY           SKY/WX    TMP DP  RH WIND       PRES   REMARKS
FLAG ISLAND    SUNNY     55  32  41 S3        30.04F
WARROAD        SUNNY     61  34  36 NE12      30.04F
ROSEAU         SUNNY     64  23  20 W5        30.02F
HALLOCK        MOSUNNY   68  25  19 S7        30.00F
THF RVR FALLS  SUNNY     66  27  22 NE9       30.03F
6HR MIN TEMP:  41; 6HR MAX TEMP:  66;

BAUDETTE       SUNNY     65  27  23 E9        30.03F
6HR MIN TEMP:  38; 6HR MAX TEMP:  65;

WASKISH        SUNNY     63  30  29 W6        30.04F
CROOKSTON      SUNNY     66  27  22 E3        30.01F
STEPHEN NDAWN    N/A     68  30  24 S3          N/A
GREENBUSH NDAW   N/A     66  28  24 SW3         N/A
$$
  *****  WEATHER ACROSS CENTRAL AND WEST MINNESOTA  *****

CITY           SKY/WX    TMP DP  RH WIND       PRES   REMARKS
FOSSTON        SUNNY     66  28  24 SE7       30.03F
BEMIDJI        SUNNY     62  27  25 NE6       30.04F
PARK RAPIDS    SUNNY     64  24  21 E3        30.03F
6HR MIN TEMP:  39; 6HR MAX TEMP:  65;

ELBOW LAKE     FAIR      62  29  29 NE5       30.04F
6HR MIN TEMP:  42; 6HR MAX TEMP:  64;

WADENA         MOSUNNY   63  32  31 NW7       30.04S
DETROIT LAKES  SUNNY     63  30  29 SE9       30.04F
MOORHEAD       SUNNY     64  27  24 NE3       30.02F
FERGUS FALLS   MOSUNNY   64  30  27 CALM      30.01F
MORRIS MN      MOSUNNY   66  28  24 SE5       30.03F
STAPLES        SUNNY     64  28  25 W7        30.04F
$$
  *****  WEATHER ELSEWHERE ACROSS MINNESOTA  *****

CITY           SKY/WX    TMP DP  RH WIND       PRES   REMARKS
DULUTH         MOSUNNY   60  33  36 SE12      30.07F
6HR MIN TEMP:  35; 6HR MAX TEMP:  61;

INTRNTL FALLS  SUNNY     64  30  27 SE9       30.03F
6HR MIN TEMP:  33; 6HR MAX TEMP:  64;

ELY            PTSUNNY   61  27  27 NE5       30.05F
CLOQUET        CLOUDY    59  28  31 NE6       30.07F
WHEATON        MOSUNNY   66  34  30 CALM      30.04F
BRAINERD       PTSUNNY   61  30  31 VRB7      30.05F
6HR MIN TEMP:  34; 6HR MAX TEMP:  62;

HIBBING        MOSUNNY   60  31  33 S7        30.05F
6HR MIN TEMP:  29; 6HR MAX TEMP:  62;

ALEXANDRIA     MOSUNNY   62  27  26 N3        30.06F
6HR MIN TEMP:  44; 6HR MAX TEMP:  63;

SAINT CLOUD    MOSUNNY   63  30  28 SE3       30.06F
6HR MIN TEMP:  35; 6HR MAX TEMP:  64;

MINNEAPOLIS    MOSUNNY   62  30  29 CALM      30.08F
6HR MIN TEMP:  44; 6HR MAX TEMP:  62;

$$

  *****  WEATHER ACROSS SOUTH DAKOTA  *****

CITY           SKY/WX    TMP DP  RH WIND       PRES   REMARKS
SIOUX FALLS    PTSUNNY   60  36  40 W3        30.08F
6HR MIN TEMP:  34; 6HR MAX TEMP:  62;

BROOKINGS      MOSUNNY   60  32  34 MISG      30.06
WATERTOWN      CLOUDY    63  31  30 S7        30.05F
6HR MIN TEMP:  36; 6HR MAX TEMP:  63;

HURON          SUNNY     63  37  38 S8        30.04F
6HR MIN TEMP:  39; 6HR MAX TEMP:  63;

SISSETON         N/A     65  29  25 SW6       30.02F
ABERDEEN       CLOUDY    65  31  28 MISG      30.03F
6HR MIN TEMP:  38; 6HR MAX TEMP:  65;

MITCHELL       MOSUNNY   61  38  42 SW6       30.08F
PIERRE         SUNNY     64  38  38 W10       30.03F
6HR MIN TEMP:  38; 6HR MAX TEMP:  64;

MOBRIDGE       LGT RAIN  50  46  86 S6        30.03F
RAPID CITY     CLOUDY    62  32  32 N12G21    30.09F
6HR MIN TEMP:  37; 6HR MAX TEMP:  62;

$$

  *****  SOME WEATHER IN NEARBY STATES *****

CITY           SKY/WX    TMP DP  RH WIND       PRES   REMARKS
GLASGOW MT     SUNNY     69  40  34 NW14      30.09F
6HR MIN TEMP:  40; 6HR MAX TEMP:  69;

GREAT FALLS MT NOT AVBL
CHEYENNE WY    SUNNY     50  19  29 NW6       30.20F
6HR MIN TEMP:  25; 6HR MAX TEMP:  51;

SCOTTSBLUFF NE SUNNY     57  30  35 W12G20    30.17F
6HR MIN TEMP:  30; 6HR MAX TEMP:  58;

OMAHA NE       MOSUNNY   60  42  51 NW6       30.11F
6HR MIN TEMP:  45; 6HR MAX TEMP:  63;

DES MOINES IA  MOSUNNY   60  41  49 VRB5      30.09F
6HR MIN TEMP:  43; 6HR MAX TEMP:  62;

DAVENPORT IA   MOSUNNY   59  42  53 NE8       30.08F
6HR MIN TEMP:  47; 6HR MAX TEMP:  59;

CHICAGO IL     PTSUNNY   56  35  45 NE15      30.05S
6HR MIN TEMP:  45; 6HR MAX TEMP:  57;

EAU CLAIRE WI  PTSUNNY   64  34  32 NW7       30.07F
6HR MIN TEMP:  40; 6HR MAX TEMP:  64;

LA CROSSE WI   MOSUNNY   63  34  33 VRB3      30.08F
6HR MIN TEMP:  40; 6HR MAX TEMP:  63;

$$

  *****  SOME NATIONAL WEATHER *****

CITY           SKY/WX    TMP DP  RH WIND       PRES   REMARKS
LA GUARDIA NY  CLOUDY    55  48  77 S5        29.93F
6HR MIN TEMP:  48; 6HR MAX TEMP:  55; 6HR PCP: TRACE;

RALEIGH NC     PTSUNNY   83  69  62 SW8       29.97F
6HR MIN TEMP:  69; 6HR MAX TEMP:  83;

ATLANTA GA     PTSUNNY   81  63  54 SW8       30.01F
6HR MIN TEMP:  69; 6HR MAX TEMP:  82;

NEW ORLEANS LA CLOUDY    79  72  79 SE13      29.97F
6HR MIN TEMP:  73; 6HR MAX TEMP:  80; 6HR PCP:  0.01;

OKLAHOMA CITY  CLOUDY    56  43  61 N13       30.17F
6HR MIN TEMP:  47; 6HR MAX TEMP:  56;

ALBUQUERQUE NM MOSUNNY   50  31  48 CALM      30.28F
6HR MIN TEMP:  38; 6HR MAX TEMP:  52;

SALT LAKE CITY MOSUNNY   64  27  24 NW7       30.21R
6HR MIN TEMP:  43; 6HR MAX TEMP:  64;

LOS ANGELES CA MOSUNNY   64  53  67 W9        30.05S
6HR MIN TEMP:  57; 6HR MAX TEMP:  64;

BOISE ID       SUNNY    C1F1C2F2C3F3C4F4C5F5C6F6C7F7C8F8C9F9CaFaCbFbCcFcCd!



USA.gov is the U.S. government's official web portal to all federal, state and local government web resources and services.